Location: Kyle
(50.8323°N, 108.0393°W)
Time: 01:30:11
(UTC+00:00)

X-37B - Pass Details

Date: 29 January 2022
Orbit: 329 x 342 km, 45.0° (Epoch: 18 May)

Event Time Altitude Azimuth Distance (km) Brightness Sun altitude
Rises 01:32:04 0° 216° (SW) 2,111 5.1 -14.9°
Reaches altitude 10° 01:34:51 10° 186° (S) 1,273 3.4 -15.3°
Maximum altitude 01:36:14 13° 157° (SSE) 1,127 2.8 -15.6°
Enters shadow 01:36:23 13° 154° (SSE) 1,129 2.8 -15.6°
